Regional Weather Roundup
Issued by NWS

Home | Current Version | Previous Version | Graphics & Text | Print | Product List | Glossary On
Versions: 1 2 3 4 5 6 7 8 9 10 11 12 13 14 15 16 17 18 19 20 21 22 23 24 25 26 27 28 29 30 31 32 33 34 35 36 37 38 39 40 41 42 43 44 45 46 47 48 49 50
963
ASUS44 KLIX 011410
RWRLA
LOUISIANA WEATHER ROUNDUP
NATIONAL WEATHER SERVICE NEW ORLEANS LA
900 AM CDT FRI AUG 01 2014

NOTE: "FAIR" INDICATES FEW OR NO CLOUDS BELOW 12,000 FEET WITH NO
      SIGNIFICANT WEATHER AND/OR OBSTRUCTIONS TO VISIBILITY.
      SKY/WX - SKY CONDITION AND SIGNIFICANT WEATHER.
      TMP - AIR TEMPERATURE.    DP   - DEWPOINT TEMPERATURE.
      RH  - RELATIVE HUMIDITY.  PRES - PRESSURE.
      HX  - HEAT INDEX.         WCI  - WIND CHILL INDEX.

*  THESE STATIONS ARE NOT NWS OR FAA STATIONS AND ARE NOT UNDER
   NWS QUALITY CONTROL.

LAZ040-048-061>063-065-066-069-011500-
SOUTHEAST LOUISIANA

CITY           SKY/WX    TMP DP  RH WIND       PRES   REMARKS
N.O. AUDUBON     N/A     85  71  63 MISG        N/A
N.O. INTL ARPT PTSUNNY   83  70  64 VRB3      30.01R
N.O. LAKEFRONT CLOUDY    80  70  71 SE7       30.01S
N.O. DOWNTOWN* FAIR      82  68  61 SE5       30.01S
SLIDELL        CLOUDY    77  67  71 E6        30.01S
BATON ROUGE    CLOUDY    76  69  79 E5        30.00R
BOOTHVILLE     CLOUDY    80  71  74 CALM      30.02S
BELLE CHASSE   CLOUDY    82  72  71 E6        30.01R
BOGALUSA*      FAIR      74  68  81 NE3       30.04R
GALLIANO*      NOT AVBL
NEW ROADS*     RAIN      74  70  86 SE3       30.00R
GONZALES*      FAIR      80  75  84 E3        30.00R
HAMMOND*       CLOUDY    77  66  69 CALM      30.03R
HOUMA*         PTSUNNY   79  72  78 CALM      30.01R
PORT FOURCHON* SUNNY     82  68  61 E6        30.02R

$$

LAZ041-044-053-054-011500-
SOUTHWEST LOUISIANA

CITY           SKY/WX    TMP DP  RH WIND       PRES   REMARKS
LAKE CHARLES   LGT RAIN  78  75  90 W13G21    29.98R
LAFAYETTE      CLOUDY    75  72  90 S6        29.99S
PATTERSON      CLOUDY    81  73  78 SE6       30.03F
SALT POINT       N/A     83  77  82 CALM      29.99R
NEW IBERIA     LGT RAIN  78  76  93 S8        30.00R FOG
CHENAULT AIRPK NOT AVBL

$$

LAZ027-028-011500-
CENTRAL LOUISIANA

CITY           SKY/WX    TMP DP  RH WIND       PRES   REMARKS
FORT POLK      LGT RAIN  76  74  93 S3        29.97R
ALEXANDRIA INT HVY RAIN  71  70  96 CALM      29.97R VSB 1/2
ALEXANDRIA     CLOUDY    72  69  90 E6        29.98S

$$

LAZ001-002-011500-
NORTHWEST LOUISIANA

CITY           SKY/WX    TMP DP  RH WIND       PRES   REMARKS
SHREVEPORT     CLOUDY    69  67  93 NE6       29.99R FOG
BARKSDALE AFB  CLOUDY    69  68  98 NE5       29.99S
DTN SHREVEPORT CLOUDY    68  66  93 E3        29.99S FOG

$$

LAZ014-016-011500-
NORTHEAST LOUISIANA

CITY           SKY/WX    TMP DP  RH WIND       PRES   REMARKS
MONROE         HVY RAIN  70  66  88 E5        30.03R FOG
TALLULAH       RAIN      70  66  87 E7        30.04R

$$




USA.gov is the U.S. government's official web portal to all federal, state and local government web resources and services.